Find Starlink 36882

NORAD ID: 67980 Int'l Des: 2026-038 Owner: SPXS Country: US Constellation: starlink operational
LEOCIRCULARRETROGRADE

現在のビュー

3D地球を読み込み中...

Starlink 36882について

説明を読み込み中...

次回通過

Passes for default location (London). Set your location on the main map for personalized predictions.

高度履歴

Loading altitude history...

軌道要素

1 67980U 26038V 26150.00230128 .00034326 00000-0 10612-2 0 9999
2 67980 97.2838 160.0082 0002305 78.2936 281.8565 15.33429570 15708
Epoch: May 30, 2026 • Age: 14 hours

現在のステータス

高度 493.8 km
速度 7.62 km/s
衛星直下点 -73.27°S, 90.14°E
打ち上げ日 Feb 25, 2026
運用期間 0.2 years
タイプ internet

技術仕様

分類 Payload
質量 575.00 kg
乾燥質量 530.00 kg
総質量 575.00 kg
長さ 0.30 m
直径 4.10 m
スパン 29.00 m
形状 Box + pan
製造者 SPXS
バスタイプ Starlink V2MO
フェーズステータス In Orbit
所有者/国 SPXS/US

Most Searched